timestamp,wind_dir_avg,wind_spd_avg,wind_spd_max_dir,wind_spd_gust,battery_voltage,lat,long
2023-11-04 00:04:01+00:00,242.0,6.94,238.0,7.71,12.41,47.59359,-54.27349
2023-11-04 00:14:00+00:00,244.0,6.98,252.0,8.1,12.41,47.59359,-54.27349
2023-11-04 00:24:00+00:00,250.0,7.46,248.0,8.5,12.41,47.59359,-54.27349
2023-11-04 00:34:00+00:00,272.0,5.28,266.0,6.1,12.41,47.59359,-54.27349
2023-11-04 00:44:00+00:00,278.0,5.01,278.0,5.69,12.41,47.59359,-54.27349
2023-11-04 00:54:00+00:00,250.0,3.92,259.0,6.39,12.41,47.59359,-54.27349
2023-11-04 01:04:00+00:00,247.0,5.15,250.0,6.33,12.41,47.59359,-54.27349
2023-11-04 01:14:01+00:00,262.0,5.29,265.0,6.04,12.33,47.59359,-54.27349
2023-11-04 01:24:01+00:00,254.0,5.49,260.0,6.82,12.33,47.59359,-54.27349
2023-11-04 01:34:01+00:00,259.0,7.25,251.0,8.29,12.33,47.59359,-54.27349
2023-11-04 01:44:01+00:00,252.0,7.28,251.0,8.12,12.33,47.59359,-54.27349
2023-11-04 01:54:01+00:00,256.0,6.28,257.0,6.98,12.33,47.59359,-54.27349
2023-11-04 02:04:01+00:00,248.0,8.62,253.0,11.4,12.33,47.59359,-54.27349
2023-11-04 02:14:01+00:00,253.0,8.82,258.0,11.95,12.33,47.59359,-54.27349
2023-11-04 02:24:01+00:00,247.0,8.1,246.0,8.82,12.33,47.59359,-54.27349
2023-11-04 02:34:01+00:00,243.0,7.51,243.0,8.25,12.33,47.59359,-54.27349
2023-11-04 02:44:01+00:00,240.0,7.28,234.0,8.04,12.33,47.59359,-54.27349
2023-11-04 02:54:01+00:00,244.0,7.12,252.0,9.76,12.33,47.59359,-54.27349
2023-11-04 03:04:01+00:00,257.0,6.32,257.0,6.84,12.33,47.59359,-54.27349
2023-11-04 03:14:00+00:00,247.0,7.1,240.0,7.7,12.33,47.59359,-54.27349
2023-11-04 03:24:00+00:00,240.0,7.4,239.0,8.11,12.33,47.59359,-54.27349
2023-11-04 03:34:00+00:00,252.0,7.84,253.0,8.45,12.33,47.59359,-54.27349
2023-11-04 03:44:00+00:00,241.0,8.14,237.0,9.21,12.33,47.59359,-54.27349
2023-11-04 03:54:00+00:00,246.0,7.95,240.0,8.47,12.33,47.59359,-54.27349
2023-11-04 04:04:00+00:00,240.0,6.76,238.0,7.95,12.33,47.59359,-54.27349
2023-11-04 04:14:01+00:00,246.0,7.42,244.0,8.05,12.33,47.59359,-54.27349
2023-11-04 04:24:01+00:00,240.0,7.25,238.0,8.31,12.33,47.59359,-54.27349
2023-11-04 04:34:01+00:00,241.0,6.85,245.0,7.47,12.33,47.59359,-54.27349
2023-11-04 04:44:01+00:00,236.0,8.59,237.0,9.38,12.33,47.59359,-54.27349
2023-11-04 04:54:01+00:00,244.0,7.89,252.0,10.47,12.33,47.59359,-54.27349
2023-11-04 05:04:01+00:00,234.0,7.67,233.0,8.94,12.33,47.59359,-54.27349
2023-11-04 05:14:01+00:00,232.0,7.29,231.0,8.37,12.33,47.59359,-54.27349
2023-11-04 05:24:01+00:00,230.0,6.39,228.0,7.09,12.33,47.59359,-54.27349
2023-11-04 05:34:01+00:00,233.0,7.33,233.0,8.7,12.33,47.59359,-54.27349
2023-11-04 05:44:01+00:00,236.0,6.46,238.0,7.52,12.33,47.59359,-54.27349
2023-11-04 05:54:01+00:00,234.0,6.19,234.0,7.29,12.33,47.59359,-54.27349
2023-11-04 06:04:01+00:00,238.0,5.37,244.0,6.22,12.33,47.59359,-54.27349
2023-11-04 06:14:01+00:00,233.0,6.0,235.0,6.61,12.33,47.59359,-54.27349
2023-11-04 06:24:01+00:00,233.0,5.92,231.0,6.97,12.33,47.59359,-54.27349
2023-11-04 06:34:01+00:00,238.0,7.3,239.0,8.05,12.33,47.59359,-54.27349
2023-11-04 06:44:01+00:00,233.0,6.58,228.0,7.69,12.33,47.59359,-54.27349
2023-11-04 06:54:01+00:00,230.0,7.04,232.0,8.18,12.33,47.59359,-54.27349
2023-11-04 07:04:01+00:00,231.0,7.15,232.0,8.4,12.33,47.59359,-54.27349
2023-11-04 07:14:00+00:00,228.0,7.32,232.0,8.85,12.25,47.59359,-54.27349
2023-11-04 07:24:00+00:00,228.0,7.98,228.0,9.02,12.25,47.59359,-54.27349
2023-11-04 07:34:00+00:00,236.0,8.02,244.0,10.26,12.25,47.59359,-54.27349
2023-11-04 07:44:00+00:00,236.0,8.15,238.0,9.35,12.25,47.59359,-54.27349
2023-11-04 07:54:00+00:00,243.0,10.3,251.0,13.86,12.25,47.59359,-54.27349
2023-11-04 08:04:00+00:00,241.0,8.51,247.0,12.18,12.25,47.59359,-54.27349
2023-11-04 08:14:00+00:00,240.0,8.17,239.0,9.6,12.25,47.59359,-54.27349
2023-11-04 08:24:00+00:00,236.0,7.89,234.0,8.76,12.25,47.59359,-54.27349
2023-11-04 08:34:00+00:00,232.0,7.79,248.0,12.81,12.25,47.59359,-54.27349
2023-11-04 08:44:00+00:00,238.0,9.51,249.0,14.53,12.25,47.59359,-54.27349
2023-11-04 08:54:00+00:00,235.0,8.8,233.0,10.38,12.25,47.59359,-54.27349
2023-11-04 09:04:00+00:00,227.0,7.6,221.0,9.25,12.25,47.59359,-54.27349
2023-11-04 09:14:00+00:00,235.0,9.25,249.0,13.87,12.25,47.59359,-54.27349
2023-11-04 09:24:00+00:00,225.0,8.9,229.0,10.6,12.25,47.59359,-54.27349
2023-11-04 09:34:00+00:00,223.0,9.8,225.0,11.32,12.25,47.59359,-54.27349
2023-11-04 09:44:00+00:00,216.0,8.59,219.0,10.95,12.25,47.59359,-54.27349
2023-11-04 09:54:00+00:00,230.0,11.13,237.0,15.78,12.25,47.59359,-54.27349
2023-11-04 10:04:00+00:00,218.0,11.68,211.0,13.34,12.25,47.59359,-54.27349
2023-11-04 10:14:01+00:00,224.0,11.64,231.0,15.75,12.25,47.59359,-54.27349
2023-11-04 10:24:01+00:00,215.0,11.49,218.0,13.22,12.25,47.59359,-54.27349
2023-11-04 10:34:01+00:00,215.0,12.81,223.0,16.26,12.25,47.59359,-54.27349
2023-11-04 10:44:01+00:00,216.0,12.99,225.0,17.11,12.25,47.59359,-54.27349
2023-11-04 10:54:01+00:00,214.0,10.93,212.0,13.43,12.25,47.59359,-54.27349
2023-11-04 11:04:01+00:00,213.0,13.13,225.0,15.26,12.25,47.59359,-54.27349
2023-11-04 11:14:00+00:00,212.0,13.67,222.0,16.02,12.33,47.59359,-54.27349
2023-11-04 11:24:00+00:00,216.0,12.91,220.0,15.96,12.33,47.59359,-54.27349
2023-11-04 11:34:00+00:00,211.0,12.14,210.0,14.08,12.33,47.59359,-54.27349
2023-11-04 11:44:00+00:00,217.0,13.3,215.0,18.32,12.33,47.59359,-54.27349
2023-11-04 11:54:00+00:00,213.0,14.35,215.0,17.37,12.33,47.59359,-54.27349
2023-11-04 12:04:00+00:00,214.0,15.05,224.0,18.94,12.33,47.59359,-54.27349
2023-11-04 12:14:00+00:00,216.0,14.38,229.0,17.73,12.41,47.59359,-54.27349
2023-11-04 12:24:00+00:00,220.0,14.73,227.0,19.16,12.41,47.59359,-54.27349
2023-11-04 12:34:00+00:00,216.0,14.07,225.0,18.13,12.41,47.59359,-54.27349
2023-11-04 12:44:00+00:00,215.0,14.74,225.0,17.69,12.41,47.59359,-54.27349
2023-11-04 12:54:00+00:00,220.0,14.72,226.0,18.2,12.41,47.59359,-54.27349
2023-11-04 13:04:00+00:00,219.0,14.16,233.0,17.44,12.41,47.59359,-54.27349
2023-11-04 13:14:00+00:00,216.0,12.5,216.0,14.73,12.65,47.59359,-54.27349
2023-11-04 13:24:00+00:00,219.0,13.43,225.0,16.37,12.65,47.59359,-54.27349
2023-11-04 13:34:00+00:00,214.0,12.98,224.0,17.33,12.65,47.59359,-54.27349
2023-11-04 13:44:00+00:00,214.0,13.23,226.0,17.78,12.65,47.59359,-54.27349
2023-11-04 13:54:00+00:00,216.0,15.05,222.0,18.9,12.65,47.59359,-54.27349
2023-11-04 14:04:00+00:00,216.0,15.07,221.0,18.59,12.65,47.59359,-54.27349
2023-11-04 14:14:00+00:00,215.0,13.57,220.0,15.42,13.21,47.59359,-54.27349
2023-11-04 14:24:00+00:00,215.0,14.07,223.0,16.85,13.21,47.59359,-54.27349
2023-11-04 14:34:00+00:00,216.0,14.85,223.0,17.45,13.21,47.59359,-54.27349
2023-11-04 14:44:00+00:00,217.0,13.58,225.0,17.43,13.21,47.59359,-54.27349
2023-11-04 14:54:00+00:00,219.0,15.39,225.0,18.35,13.21,47.59359,-54.27349
2023-11-04 15:04:00+00:00,216.0,13.85,223.0,16.57,13.21,47.59359,-54.27349
2023-11-04 15:14:00+00:00,215.0,13.48,220.0,15.43,14.24,47.59359,-54.27349
2023-11-04 15:24:00+00:00,221.0,14.03,223.0,19.22,14.24,47.59359,-54.27349
2023-11-04 15:34:00+00:00,221.0,15.85,221.0,18.66,14.24,47.59359,-54.27349
2023-11-04 15:44:00+00:00,221.0,14.34,223.0,17.78,14.24,47.59359,-54.27349
2023-11-04 15:54:00+00:00,221.0,13.99,220.0,17.75,14.24,47.59359,-54.27349
2023-11-04 16:04:00+00:00,216.0,15.62,218.0,19.41,14.24,47.59359,-54.27349
2023-11-04 16:14:00+00:00,217.0,15.89,222.0,18.69,13.84,47.59359,-54.27349
2023-11-04 16:24:00+00:00,217.0,15.27,221.0,17.95,13.84,47.59359,-54.27349
2023-11-04 16:34:00+00:00,215.0,16.95,217.0,20.45,13.84,47.59359,-54.27349
2023-11-04 16:44:00+00:00,213.0,14.48,215.0,17.72,13.84,47.59359,-54.27349
2023-11-04 16:54:00+00:00,217.0,13.03,216.0,15.19,13.84,47.59359,-54.27349
2023-11-04 17:04:00+00:00,217.0,13.73,221.0,16.27,13.84,47.59359,-54.27349
2023-11-04 17:14:00+00:00,213.0,14.81,218.0,17.12,14.4,47.59359,-54.27349
2023-11-04 17:24:00+00:00,215.0,13.68,213.0,16.13,14.4,47.59359,-54.27349
2023-11-04 17:34:00+00:00,216.0,13.85,219.0,17.73,14.4,47.59359,-54.27349
2023-11-04 17:44:00+00:00,217.0,15.45,220.0,18.6,14.4,47.59359,-54.27349
2023-11-04 17:54:00+00:00,219.0,14.95,221.0,17.55,14.4,47.59359,-54.27349
2023-11-04 18:04:00+00:00,220.0,17.1,215.0,19.99,14.4,47.59359,-54.27349
2023-11-04 18:14:00+00:00,214.0,15.28,210.0,18.0,13.68,47.59359,-54.27349
2023-11-04 18:24:00+00:00,217.0,15.42,215.0,17.35,13.68,47.59359,-54.27349
2023-11-04 18:34:00+00:00,222.0,14.5,225.0,16.14,13.68,47.59359,-54.27349
2023-11-04 18:44:00+00:00,221.0,13.65,222.0,15.94,13.68,47.59359,-54.27349
2023-11-04 18:54:00+00:00,219.0,13.3,211.0,17.71,13.68,47.59359,-54.27349
2023-11-04 19:04:00+00:00,221.0,13.55,230.0,17.31,13.68,47.59359,-54.27349
2023-11-04 19:14:00+00:00,224.0,14.54,229.0,19.47,13.37,47.59359,-54.27349
2023-11-04 19:24:00+00:00,220.0,13.04,216.0,16.58,13.37,47.59359,-54.27349
2023-11-04 19:34:00+00:00,221.0,14.74,221.0,16.01,13.37,47.59359,-54.27349
2023-11-04 19:44:00+00:00,222.0,13.97,219.0,16.3,13.37,47.59359,-54.27349
2023-11-04 19:54:00+00:00,230.0,11.88,215.0,15.16,13.37,47.59359,-54.27349
2023-11-04 20:04:00+00:00,226.0,12.31,228.0,14.97,13.37,47.59359,-54.27349
2023-11-04 20:14:01+00:00,230.0,11.9,230.0,13.86,12.97,47.59359,-54.27349
2023-11-04 20:24:01+00:00,228.0,12.05,229.0,16.75,12.97,47.59359,-54.27349
2023-11-04 20:34:01+00:00,232.0,12.16,234.0,14.58,12.97,47.59359,-54.27349
2023-11-04 20:44:01+00:00,232.0,12.1,234.0,14.84,12.97,47.59359,-54.27349
2023-11-04 20:54:01+00:00,234.0,12.3,228.0,15.81,12.97,47.59359,-54.27349
2023-11-04 21:04:01+00:00,232.0,12.19,236.0,15.12,12.97,47.59359,-54.27349
2023-11-04 21:14:01+00:00,230.0,12.0,224.0,13.94,12.49,47.59359,-54.27349
2023-11-04 21:24:01+00:00,233.0,12.19,224.0,14.59,12.49,47.59359,-54.27349
2023-11-04 21:34:01+00:00,236.0,10.79,235.0,12.44,12.49,47.59359,-54.27349
2023-11-04 21:44:01+00:00,236.0,9.39,238.0,10.9,12.49,47.59359,-54.27349
2023-11-04 21:54:01+00:00,235.0,10.1,232.0,11.98,12.49,47.59359,-54.27349
2023-11-04 22:04:01+00:00,236.0,9.62,239.0,10.79,12.49,47.59359,-54.27349
2023-11-04 22:14:01+00:00,242.0,9.7,239.0,11.14,12.41,47.59359,-54.27349
2023-11-04 22:24:01+00:00,234.0,10.02,241.0,11.52,12.41,47.59359,-54.27349
2023-11-04 22:34:01+00:00,237.0,9.12,236.0,10.31,12.41,47.59359,-54.27349
2023-11-04 22:44:01+00:00,242.0,9.53,241.0,10.82,12.41,47.59359,-54.27349
2023-11-04 22:54:01+00:00,238.0,10.73,240.0,12.82,12.41,47.59359,-54.27349
2023-11-04 23:04:01+00:00,241.0,9.02,239.0,10.02,12.41,47.59359,-54.27349
2023-11-04 23:14:01+00:00,253.0,11.22,254.0,12.97,12.41,47.59359,-54.27349
2023-11-04 23:24:01+00:00,261.0,11.31,260.0,12.8,12.41,47.59359,-54.27349
2023-11-04 23:34:01+00:00,259.0,10.92,261.0,12.02,12.41,47.59359,-54.27349
2023-11-04 23:44:01+00:00,253.0,10.04,252.0,10.77,12.41,47.59359,-54.27349
2023-11-04 23:54:01+00:00,250.0,10.27,248.0,12.11,12.41,47.59359,-54.27349
